[[{"header":{"parameterUnit":"m.s-1","parameterCategory":1,"la1":30.2992,"la2":30.254,"lo1":-89.0895,"lo2":-89.0443,"dy":0.0025,"dx":0.0025,"nx":19,"ny":19,"refTime":"2026-04-20T21:00:00:Z","depth":0,"parameterNumber":2,"parameterNumberName":"U-component_of_WINDS"},"data":[0,0,0,-3.0376,-3.038,-3.0572,-3.0572,-3.0798,-3.08,0,0,0,0,0,0,0,0,0,0,0,-3.0306,-3.0307,-3.0376,-3.038,-3.0571,-3.0572,-3.0797,-3.08,0,0,0,0,0,0,0,0,0,0,0,-3.0305,-3.0306,-3.0308,-3.0381,-3.0571,-3.0573,-3.0797,-3.066,0,0,0,0,0,0,0,0,0,0,-3.0478,-3.0398,-3.0306,-3.0308,-3.0382,-3.0571,-3.0573,-3.0654,-3.0669,-3.0702,0,-3.0726,0,-3.0766,-3.0813,-3.0814,0,0,0,-3.0391,-3.0386,-3.045,-3.0308,-3.0384,-3.0571,-3.0488,-3.0662,-3.0679,-3.0722,-3.073,-3.0739,-3.077,-3.0815,-3.0816,-3.0969,-3.0969,0,0,-3.038,-3.0333,-3.0438,-3.046,-3.0427,-3.0482,-3.0494,-3.0673,-3.0679,-3.0731,-3.0745,-3.0774,-3.0816,-3.0817,-3.0969,-3.0969,0,0,0,-3.0343,-3.0325,-3.0385,-3.045,-3.0486,-3.0487,-3.0501,-3.0671,-3.0695,-3.0747,-3.0776,-3.0817,-3.082,-3.0969,-3.0969,-3.0932,0,0,0,-3.0337,-3.0303,-3.038,-3.0353,-3.0482,-3.0581,-3.0495,-3.0682,-3.0704,-3.0775,-3.0817,-3.0822,-3.0969,-3.0969,-3.0933,-3.0922,0,0,0,-3.0298,-3.0299,-3.0322,-3.035,-3.043,-3.0579,-3.0613,-3.0688,-3.0722,-3.0814,-3.0822,-3.0969,-3.0969,-3.0933,-3.0923,-3.0948,0,0,0,-3.0243,-3.0286,-3.032,-3.0381,-3.0428,-3.0554,-3.0612,-3.0709,-3.0784,-3.0818,-3.0969,-3.0969,-3.0933,-3.0924,-3.0949,-3.096,-3.096,0,0,-3.0271,-3.0288,-3.0328,-3.0364,-3.0471,-3.0529,-3.0632,-3.0747,-3.08,-3.091,-3.0915,-3.0932,-3.0923,-3.0949,-3.0981,-3.0981,0,0,0,-3.0321,-3.0348,-3.0387,-3.0456,-3.0544,-3.0619,-3.0722,-3.0766,-3.0861,-3.0846,-3.095,-3.0947,-3.0963,-3.0971,-3.0971,-3.0988,-3.0971,-3.0971,-3.0971,-3.0292,-3.0358,-3.0428,-3.0516,-3.0582,-3.0689,-3.0749,-3.0826,-3.0873,-3.0897,-3.0929,-3.0941,-3.0948,-3.0948,-3.0965,-3.0941,-3.0941,-3.0941,-3.0941,-3.034,-3.0389,-3.0451,-3.0541,-3.0611,-3.0688,-3.0794,-3.0825,-3.0908,-3.0921,-3.0939,-3.0947,-3.0946,-3.0965,-3.0939,-3.0939,-3.094,-3.094,-3.094,-3.0328,-3.0363,-3.0414,-3.052,-3.0595,-3.0685,-3.0762,-3.0823,-3.0882,-3.09,-3.0941,-3.0942,-3.095,-3.0915,-3.0915,-3.0915,-3.0915,-3.0915,-3.0915,-3.0294,-3.0353,-3.0409,-3.0507,-3.0559,-3.0637,-3.0746,-3.08,-3.0876,-3.0915,-3.0916,-3.096,-3.0934,-3.0925,-3.0916,-3.0916,-3.0916,-3.0916,-3.0916,-3.0317,-3.0322,-3.0407,-3.046,-3.0581,-3.0652,-3.073,-3.0835,-3.089,-3.0926,-3.0968,-3.0938,-3.096,-3.096,-3.0954,-3.0953,-3.0953,-3.0953,-3.0953,-3.0305,-3.0323,-3.0425,-3.0505,-3.0591,-3.067,-3.0768,-3.0854,-3.0945,-3.0983,-3.0992,-3.0989,-3.0987,-3.101,-3.101,-3.1004,-3.1017,-3.1017,-3.1017,-3.0323,-3.0352,-3.0421,-3.0508,-3.0607,-3.0692,-3.0786,-3.0877,-3.0981,-3.1021,-3.1014,-3.1011,-3.1007,-3.1002,-3.1039,-3.1037,-3.1029,0,0]},{"header":{"parameterUnit":"m.s-1","parameterCategory":1,"la1":30.2992,"la2":30.254,"lo1":-89.0895,"lo2":-89.0443,"dy":0.0025,"dx":0.0025,"nx":19,"ny":19,"refTime":"2026-04-20T21:00:00:Z","depth":0,"parameterNumber":3,"parameterNumberName":"V-component_of_WINDS"},"data":[0,0,0,5.093,5.0931,5.094,5.094,5.0952,5.0952,0,0,0,0,0,0,0,0,0,0,0,5.0928,5.0928,5.093,5.0931,5.094,5.094,5.0952,5.0952,0,0,0,0,0,0,0,0,0,0,0,5.0928,5.0928,5.0929,5.0931,5.094,5.094,5.0952,5.0945,0,0,0,0,0,0,0,0,0,0,5.0936,5.0935,5.0928,5.0929,5.0931,5.094,5.094,5.0944,5.0945,5.0948,0,5.0952,0,5.0952,5.0953,5.0953,0,0,0,5.093,5.0934,5.0936,5.0929,5.0931,5.094,5.0935,5.0945,5.0946,5.0949,5.0952,5.0952,5.0952,5.0953,5.0953,5.0975,5.0976,0,0,5.0929,5.093,5.0935,5.0937,5.0936,5.0935,5.0936,5.0945,5.0948,5.0952,5.0952,5.0952,5.0953,5.0953,5.0975,5.0975,0,0,0,5.0928,5.093,5.0932,5.0936,5.0938,5.0935,5.0936,5.0947,5.0948,5.0952,5.0953,5.0953,5.0953,5.0975,5.0975,5.0984,0,0,0,5.0928,5.0929,5.0931,5.0932,5.0938,5.0943,5.0938,5.0947,5.0948,5.0953,5.0953,5.0953,5.0975,5.0975,5.0983,5.0987,0,0,0,5.0928,5.0929,5.0931,5.0932,5.0936,5.0942,5.0943,5.0947,5.0948,5.0953,5.0953,5.0975,5.0975,5.0982,5.0986,5.0994,0,0,0,5.0927,5.0937,5.0931,5.0943,5.0936,5.0948,5.0943,5.0952,5.0957,5.0953,5.0975,5.0975,5.0982,5.0986,5.0993,5.1,5.1003,0,0,5.094,5.0939,5.0946,5.094,5.0954,5.0946,5.0961,5.0964,5.0963,5.0971,5.0972,5.0983,5.0986,5.0993,5.102,5.1022,0,0,0,5.095,5.0955,5.0958,5.0964,5.0967,5.0971,5.0972,5.0973,5.0981,5.0968,5.0988,5.099,5.0994,5.0997,5.0999,5.1003,5.0977,5.0977,5.0977,5.0969,5.0969,5.0981,5.0982,5.0987,5.0989,5.0993,5.0996,5.0992,5.0998,5.1,5.1016,5.102,5.1021,5.1025,5.1003,5.1003,5.1004,5.1004,5.0989,5.0996,5.0994,5.1004,5.1004,5.1012,5.1015,5.1013,5.102,5.1014,5.1017,5.101,5.1024,5.1027,5.1004,5.1004,5.1004,5.1004,5.1004,5.1001,5.1005,5.1007,5.1016,5.1023,5.1024,5.1032,5.1031,5.103,5.1034,5.1036,5.1036,5.1036,5.1035,5.1035,5.1035,5.1035,5.1035,5.1035,5.1013,5.1016,5.1023,5.1029,5.1033,5.1038,5.1042,5.1045,5.1049,5.1048,5.1048,5.1045,5.1025,5.102,5.1036,5.1036,5.1036,5.1036,5.1036,5.1033,5.1029,5.104,5.1044,5.1052,5.1059,5.1058,5.1066,5.1069,5.1074,5.107,5.1056,5.1054,5.1052,5.1048,5.107,5.107,5.107,5.107,5.1043,5.1043,5.1055,5.1062,5.1068,5.107,5.1082,5.1086,5.1088,5.109,5.1087,5.1081,5.108,5.1079,5.1076,5.1073,5.11,5.11,5.11,5.1055,5.1056,5.1067,5.107,5.1076,5.1082,5.1094,5.1102,5.1104,5.1102,5.1091,5.109,5.1081,5.1079,5.1075,5.1072,5.1065,0,0]}]]